Time,TemperatureF,DewpointF,PressureIn,WindDirection,WindDirectionDegrees,WindSpeedMPH,WindSpeedGustMPH,Humidity,HourlyPrecipIn,Conditions,Clouds,dailyrainin,SoftwareType,DateUTC
2013-01-03 09:53:00,15.0,12.0,-100.00,SE,141,1.0,-999.0,87,-99.99,,,0.02,,2013-01-03 17:53:00,
2013-01-03 10:03:00,15.0,12.0,-100.00,SE,141,1.0,-999.0,87,-99.99,,,0.02,,2013-01-03 18:03:00,
2013-01-03 10:12:00,15.0,12.0,-100.00,SE,141,1.0,-999.0,87,-99.99,,,0.02,,2013-01-03 18:12:00,
2013-01-03 10:22:00,15.0,12.0,-100.00,SE,141,1.0,-999.0,87,-99.99,,,0.02,,2013-01-03 18:22:00,
2013-01-03 11:03:00,32.0,24.0,-100.00,ENE,62,1.0,2.0,73,-99.99,,,0.02,,2013-01-03 19:03:00,
2013-01-03 12:02:00,46.0,19.0,-100.00,ENE,60,2.0,4.0,34,0.01,,,-99.99,,2013-01-03 20:02:00,
2013-01-03 12:33:00,46.0,19.0,-100.00,ENE,60,2.0,4.0,34,0.01,,,-99.99,,2013-01-03 20:33:00,
2013-01-03 13:02:00,47.0,18.0,-100.00,NNE,30,2.0,5.0,31,0.05,,,0.07,,2013-01-03 21:02:00,
2013-01-03 13:12:00,47.0,18.0,-100.00,NNE,30,2.0,5.0,31,0.05,,,0.07,,2013-01-03 21:12:00,
2013-01-03 13:22:00,47.0,18.0,-100.00,NNE,30,2.0,5.0,31,0.05,,,0.07,,2013-01-03 21:22:00,
2013-01-03 14:02:00,44.0,19.0,-100.00,NW,320,1.0,5.0,37,-99.99,,,0.13,,2013-01-03 22:02:00,
2013-01-03 14:12:00,44.0,19.0,-100.00,NW,320,1.0,5.0,37,-99.99,,,0.13,,2013-01-03 22:12:00,
2013-01-03 14:22:00,44.0,19.0,-100.00,NW,320,1.0,5.0,37,-99.99,,,0.13,,2013-01-03 22:22:00,
2013-01-03 14:32:00,44.0,19.0,-100.00,NW,320,1.0,5.0,37,-99.99,,,0.13,,2013-01-03 22:32:00,
2013-01-03 14:52:00,44.0,20.0,-100.00,NNW,338,2.0,5.0,38,0.02,,,0.15,,2013-01-03 22:52:00,
2013-01-03 15:02:00,44.0,20.0,-100.00,NNW,338,2.0,5.0,38,0.02,,,0.15,,2013-01-03 23:02:00,
2013-01-03 15:12:00,44.0,20.0,-100.00,NNW,338,2.0,5.0,38,0.02,,,0.15,,2013-01-03 23:12:00,
2013-01-03 15:22:00,44.0,20.0,-100.00,NNW,338,2.0,5.0,38,0.02,,,0.15,,2013-01-03 23:22:00,
2013-01-03 15:32:00,44.0,20.0,-100.00,NNW,338,2.0,5.0,38,0.02,,,0.15,,2013-01-03 23:32:00,
2013-01-03 15:53:00,46.0,26.0,-100.00,NW,325,1.0,5.0,45,0.02,,,0.16,,2013-01-03 23:53:00,
2013-01-03 16:03:00,46.0,26.0,-100.00,NW,325,1.0,5.0,45,0.02,,,0.16,,2013-01-04 00:03:00,
2013-01-03 16:12:00,46.0,26.0,-100.00,NW,325,1.0,5.0,45,0.02,,,0.16,,2013-01-04 00:12:00,
2013-01-03 16:22:00,46.0,26.0,-100.00,NW,325,1.0,5.0,45,0.02,,,0.16,,2013-01-04 00:22:00,
2013-01-03 16:32:00,46.0,26.0,-100.00,NW,325,1.0,5.0,45,0.02,,,0.16,,2013-01-04 00:32:00,
2013-01-03 17:02:00,30.0,23.0,-100.00,South,182,1.0,4.0,74,0.00,,,0.16,,2013-01-04 01:02:00,
2013-01-03 17:12:00,30.0,23.0,-100.00,South,182,1.0,4.0,74,0.00,,,0.16,,2013-01-04 01:12:00,
2013-01-03 17:22:00,30.0,23.0,-100.00,South,182,1.0,4.0,74,0.00,,,0.16,,2013-01-04 01:22:00,
2013-01-03 17:32:00,30.0,23.0,-100.00,South,182,1.0,4.0,74,0.00,,,0.16,,2013-01-04 01:32:00,
2013-01-03 17:52:00,26.0,23.0,-100.00,SE,141,2.0,3.0,87,0.00,,,0.16,,2013-01-04 01:52:00,
2013-01-03 18:02:00,26.0,23.0,-100.00,SE,141,2.0,3.0,87,0.00,,,0.16,,2013-01-04 02:02:00,
2013-01-03 18:12:00,26.0,23.0,-100.00,SE,141,2.0,3.0,87,0.00,,,0.16,,2013-01-04 02:12:00,
2013-01-03 18:22:00,26.0,23.0,-100.00,SE,141,2.0,3.0,87,0.00,,,0.16,,2013-01-04 02:22:00,
2013-01-03 18:32:00,26.0,23.0,-100.00,SE,141,2.0,3.0,87,0.00,,,0.16,,2013-01-04 02:32:00,
2013-01-03 18:53:00,23.0,21.0,-100.00,ENE,62,1.0,2.0,92,0.00,,,0.16,,2013-01-04 02:53:00,
2013-01-03 19:02:00,23.0,21.0,-100.00,ENE,62,1.0,2.0,92,0.00,,,0.16,,2013-01-04 03:02:00,
2013-01-03 19:12:00,23.0,21.0,-100.00,ENE,62,1.0,2.0,92,0.00,,,0.16,,2013-01-04 03:12:00,
2013-01-03 19:22:00,23.0,21.0,-100.00,ENE,62,1.0,2.0,92,0.00,,,0.16,,2013-01-04 03:22:00,
2013-01-03 19:32:00,23.0,21.0,-100.00,ENE,62,1.0,2.0,92,0.00,,,0.16,,2013-01-04 03:32:00,
2013-01-03 19:53:00,21.0,19.0,-100.00,South,184,1.0,2.0,92,0.00,,,0.16,,2013-01-04 03:53:00,
2013-01-03 20:02:00,21.0,19.0,-100.00,South,184,1.0,2.0,92,0.00,,,0.16,,2013-01-04 04:02:00,
2013-01-03 20:12:00,21.0,19.0,-100.00,South,184,1.0,2.0,92,0.00,,,0.16,,2013-01-04 04:12:00,
2013-01-03 20:22:00,21.0,19.0,-100.00,South,184,1.0,2.0,92,0.00,,,0.16,,2013-01-04 04:22:00,
2013-01-03 20:32:00,21.0,19.0,-100.00,South,184,1.0,2.0,92,0.00,,,0.16,,2013-01-04 04:32:00,